Погода в Верхотурье

Россия / Свердловская область     58°51′43″N   60°48′36″E
темп.,
°C
ветер,
м/с
пор.,
м/с
влажн.,
%
обл.,
%
осадки,
мм/ч
давл.,
гПа
погр.,
м
19 апреля, пн
пн1923:00−4св23520 0.0 103465
02:00−4вюв00510 0.0 103410
05:00−4з11535 0.0 103510
08:00−1з114080 0.0 1036407
11:00+2с23325 0.0 10361783
14:00+4с33295 0.0 10341986
17:00+4с233145 0.0 10341962
20:000св00464 0.0 103410
20 апреля, вт
вт2023:00−2ююз11525 0.0 103410
02:00−2зюз2458100 0.0 103376
05:00−3з276728 0.0 1033152
08:00+1зсз3550100 0.0 1032370
11:00+6зсз35345 0.0 10301121
14:00+9сз35335 0.0 10291570
17:00+9сз45355 0.0 10281655
20:00+5ссз24580 0.0 102871
21 апреля, ср
ср2123:00+2зсз24740 0.0 102961
02:000сз22780 0.0 103046
05:000зсз11810 0.0 103110
08:00+4зсз01610 0.0 1032182
11:00+9вюв00450 0.0 1032924
14:00+12ююв11370 0.0 10311357
17:00+12юв22351 0.0 10311555
20:00+9юв22525 0.0 103228
22 апреля, чт
чт2223:00+6ююв386645 0.0 1032132
02:00+4ю277561 0.0 1033128
05:00+3ю26796 0.0 1033110
08:00+7ю366268 0.0 1033255
11:00+13ю463966 0.0 10331128
14:00+15ю463238 0.0 10311843
17:00+16ююз4631100 0.0 10312198
20:00+11ю2252100 0.0 103132
23 апреля, пт
пт2323:00+8юз2259100 0.0 103216
02:00+6юз2262100 0.0 103226
05:00+6ююз2263100 0.0 103330
08:00+8ююз2454100 0.0 1033178
11:00+12юз2338100 0.0 1033890
14:00+14ююз2432100 0.0 10321777
17:00+15ю2431100 0.0 10322255
20:00+11вюв2249100 0.0 103115